www.pogodaiklimat.ru
ПОГОДА в Танджунгселоре
Время
(UTC), дата
09 6.12
12 6.12
15 6.12
18 6.12
21 6.12
00 7.12
03 7.12
06 7.12
09 7.12
12 7.12
15 7.12
18 7.12
21 7.12
00 8.12
03 8.12
06 8.12
09 8.12
12 8.12
15 8.12
18 8.12
21 8.12
00 9.12
03 9.12
06 9.12
09 9.12
12 9.12
15 9.12
18 9.12
21 9.12
00 10.12
03 10.12
06 10.12
09 10.12
12 10.12
15 10.12
18 10.12
21 10.12
00 11.12
03 11.12
06 11.12
09 11.12
12 11.12
15 11.12
18 11.12
21 11.12
00 12.12
03 12.12
06 12.12
09 12.12
12 12.12
15 12.12
18 12.12
21 12.12
00 13.12
03 13.12
06 13.12
Ветер
(напр.,м/с)
Видим. Явления Облачность Т
(С)
Тd
(С)
f
(%)
Тe
(С)
Тes
(С)
Комфортность P
(гПа)
Po
(гПа)
Тmin
(С)
Tmax
(С)
R
(мм)
R24
(мм)
S
(см)
В 3 8000 м 9/4 450 м
[Cu hum Ac As Cs]
+29.2 +25.8 82 +44 +44 опасность
перегрева
1008.5 1008.1
штиль 0 8000 м 9/4 450 м
[Sc diur, vesp Ac As Ci fib]
+26.7 +25.6 94 +39 +39 очень
душно
1010.1 1009.8 +29.5
штиль 0 8000 м 9/4 450 м
[Sc diur, vesp Ac As Ci fib]
+25.5 +24.7 95 +36 +36 очень
душно
1011.1 1010.8
штиль 0 8000 м 9/4 450 м
[Sc diur, vesp Ac As Ci fib]
+24.8 +24.3 97 +34 +34 очень
душно
1010.1 1009.7
штиль 0 8000 м 9/4 450 м
[Sc diur, vesp Ac As Ci fib]
+24.8 +24.3 97 +34 +34 очень
душно
1008.6 1008.0
штиль 0 300 м туман ?/? +24.8 +24.0 95 +34 +34 очень
душно
1011.7 1011.3 +24.3
В 1 8000 м 6/5 450 м
[Sc diur, vesp As trans Ci fib]
+31.2 +24.5 68 +44 +53 опасность
перегрева
1010.8 1010.4
штиль 0 8000 м 6/4 450 м
[Cu hum Ac trans Ci fib]
+33.0 +23.8 59 +45 +54 опасность
перегрева
1007.8 1007.4
СВ 3 8000 м 4/3 450 м
[Cu hum Ac trans Ci fib]
+32.3 +24.8 65 +46 +47 опасность
перегрева
1007.0 1006.7
штиль 0 8000 м 4/3 450 м
[Cu hum Ac lent Ci fib]
+28.0 +25.4 86 +41 +41 опасность
перегрева
1009.8 1009.5 +33.8
штиль 0 8000 м 3/3 450 м
[Cu hum Ac trans Ci fib]
+26.4 +24.6 90 +37 +37 очень
душно
1010.8 1010.4
штиль 0 8000 м 3/3 450 м
[Cu hum Ac trans Ci fib]
+25.3 +23.3 89 +34 +34 очень
душно
1009.6 1009.2
Ю 1 7000 м гроза без осадков 5/4
[Cb cap Ac As Ci fib]
+24.9 +23.5 92 +34 +34 очень
душно
1009.5 1009.1
штиль 0 8000 м {гроза} 6/5 450 м
[Cu hum Ac As Ci fib]
+27.0 +24.6 87 +38 +40 очень
душно
1012.0 1011.6 +24.6
СВ 5 10 км 5/4 450 м
[Cu hum Ac lent Ci fib]
+32.6 +24.3 62 +45 +50 опасность
перегрева
1011.1 1010.8
СВ 5 8000 м 8/5 450 м
[Cb cap Ac As Ci fib]
+33.2 +24.2 59 +45 +48 опасность
перегрева
1008.4 1008.0
штиль 0 8000 м {дождь} 8/4
[Cb cap Ac As Ci fib]
+27.3 +23.9 82 +38 +39 очень
душно
1008.2 1007.8 0.4
штиль 0 7000 м {дождь} 6/3 450 м
[Cu hum Ac trans Ci fib]
+25.9 +24.5 92 +36 +36 очень
душно
1011.0 1010.6 +25.9 0.4
штиль 0 7000 м 6/3 450 м
[Cu hum Ac trans Ci fib]
+25.3 +24.3 94 +35 +35 очень
душно
1011.6 1011.2
штиль 0 7000 м слаб. ливневой дождь, в посл. час гроза 10/4
[Cb cap Ac As Ci fib]
+25.1 +24.1 94 +35 +35 очень
душно
1010.7 1010.4 0.0
штиль 0 6000 м в посл. час дождь 10/3 450 м
[Cu hum Ac As Ci fib]
+23.8 +23.4 98 +32 +32 очень
душно
1010.3 1009.9 26
штиль 0 8000 м {дождь} 9/4 450 м
[Cu hum Ac As Ci fib]
+26.6 +24.9 90 +38 +40 очень
душно
1011.8 1011.4 +23.4 0.3
Ю 3 8000 м 9/4 450 м
[Cu hum Ac As Ci fib]
+31.0 +23.8 66 +43 +48 опасность
перегрева
1011.1 1010.8
СВ 2 8000 м 8/5 450 м
[Cu hum Ac As Ci fib]
+32.0 +24.6 65 +45 +50 опасность
перегрева
1010.0 1009.6
В 3 8000 м 6/4 450 м
[Cu hum Ac As Ci fib]
+32.4 +24.4 63 +45 +46 опасность
перегрева
1007.0 1006.6
штиль 0 8000 м 4/1 450 м
[Cu hum Ac trans Cs]
+27.8 +25.5 87 +41 +41 опасность
перегрева
1009.4 1009.0 +33.2
штиль 0 8000 м 1/1 450 м
[Cu hum Ac trans Cs]
+26.0 +24.8 93 +37 +37 очень
душно
1010.5 1010.1
штиль 0 6000 м зарница 9/3
[Cb cap Ac trans Cs]
+25.2 +24.5 96 +35 +35 очень
душно
1009.4 1009.0
Ю 3 4000 м слаб. дождь {гроза} 10/5
[Cb cap As op]
+25.3 +23.9 92 +35 +35 очень
душно
1009.6 1009.2 0.3
Ю 1 3000 м слаб. дождь {гроза} 10/5
[Cb cap As op]
+24.0 +23.5 97 +32 +33 очень
душно
1011.2 1010.8 +23.9 0.1
ЮВ 3 6000 м {дождь} 6/4 450 м
[Cu hum Ac As Ci fib]
+30.5 +24.9 72 +44 +51 опасность
перегрева
1010.7 1010.3 0.2
ЮВ 2 8000 м 6/4 450 м
[Cu hum Ac As Ci fib]
+32.2 +23.6 61 +44 +51 опасность
перегрева
1007.4 1007.0
СВ 4 8000 м 8/4 450 м
[Sc diur, vesp Ac As Ci fib]
+31.3 +24.6 68 +44 +45 опасность
перегрева
1006.6 1006.3
штиль 0 8000 м зарница 8/4
[Cb cap As trans Cs]
+27.9 +24.5 82 +39 +39 очень
душно
1009.4 1009.0 +32.8
штиль 0 6000 м зарница 9/5
[Cb cap As trans Ci fib]
+26.8 +24.1 85 +37 +37 очень
душно
1010.4 1010.0
штиль 0 3000 м в посл. час дождь {гроза} 10/5
[Cb cap As op]
+25.4 +24.6 95 +36 +36 очень
душно
1009.1 1008.7 1
Ю 2 5000 м {гроза} 9/5
[Cb cap As op Cs]
+25.0 +24.0 94 +34 +34 очень
душно
1008.7 1008.4
штиль 0 8000 м 10/4 450 м
[Cu hum Ac As Cs]
+25.4 +24.0 92 +35 +36 очень
душно
1010.5 1010.1 +24.0 1
СВ 1 8000 м 9/4 450 м
[Cu hum Ac As Cs]
+31.1 +24.7 69 +44 +51 опасность
перегрева
1009.8 1009.4
ЮВ 3 3000 м гроза без осадков 10/5
[Cb calv Ac As]
+25.4 +24.2 93 +35 +37 очень
душно
1008.2 1007.8 57
штиль 0 8000 м {гроза} 6/4 450 м
[Cu hum Ac As Ci fib]
+27.1 +25.5 91 +40 +41 очень
душно
1006.9 1006.5
штиль 0 8000 м {гроза} 6/4 450 м
[Cu hum Ac As Ci fib]
+25.8 +24.8 94 +37 +37 очень
душно
1008.6 1008.3 +31.6
штиль 0 8000 м 6/4 450 м
[Cu hum Ac As Ci fib]
+25.0 +24.2 95 +34 +34 очень
душно
1010.2 1009.8
штиль 0 8000 м 6/4 450 м
[Cu hum Ac As Ci fib]
+24.3 +23.8 97 +33 +33 очень
душно
1008.9 1008.5
штиль 0 8000 м 6/4 450 м
[Cu hum Ac As Ci fib]
+24.0 +23.6 98 +33 +33 очень
душно
1008.6 1008.2
штиль 0 8000 м 6/4 450 м
[Sc diur, vesp Ac As Ci fib]
+26.0 +24.5 91 +36 +39 очень
душно
1010.3 1009.9 +24.0 57
штиль 0 8000 м 8/5 450 м
[Cb cap Ac As Ci fib]
+31.5 +24.5 66 +44 +52 опасность
перегрева
1010.3 1009.9
Ю 4 7000 м гроза без осадков 10/5
[Cb cap Ac As Ci fib]
+31.2 +24.0 66 +43 +45 опасность
перегрева
1007.8 1007.4 0.0
штиль 0 7000 м 9/4 450 м
[Cu hum Ac As Ci fib]
+28.1 +24.2 79 +39 +40 очень
душно
1007.0 1006.7
штиль 0 7000 м зарница 9/5
[Cb cap Ac As Ci fib]
+26.6 +24.5 88 +37 +37 очень
душно
1010.0 1009.7 +32.3
штиль 0 7000 м зарница 9/4
[Cb cap Ac As Ci fib]
+25.6 +24.6 94 +36 +36 очень
душно
1011.0 1010.6
штиль 0 3000 м гроза, ливневой дождь 10/5
[Cb cap Ac As]
+23.6 +22.8 95 +31 +31 очень
душно
1010.0 1009.6 16
штиль 0 6000 м {гроза, дождь} 10/5
[Cb cap Ac As]
+23.6 +22.9 96 +31 +31 очень
душно
1010.1 1009.8 0.5
Ю 2 8000 м {гроза, дождь} 8/3 450 м
[Cu hum Ac As Ci fib]
+26.4 +24.3 88 +37 +38 очень
душно
1011.8 1011.5 +23.4 0.0
В 5 9000 м 8/5 450 м
[Cu hum Ac As Ci fib]
+29.8 +24.2 72 +42 +44 опасность
перегрева
1011.9 1011.5
СВ 4 8000 м 6/4 450 м
[Cb cap Ac As Ci fib]
+32.2 +23.9 62 +44 +49 опасность
перегрева
1009.3 1008.9
Местоположение метеостанции Танджунгселор (Индонезия): широта 2.85 долгота 117.33 высота над уровнем моря 50 м.
В архиве по умолчанию представлена погода в Танджунгселоре за последнюю неделю. Архивные данные за месяц целиком и за предыдущие месяцы, начиная с января 2011 года, Вы можете получить, выбрав интересующий диапазон дат из раскрывающегося списка и нажав кнопку "Найти!".
*Определитесь, кто Вы:
Внимание! Время в таблицах - всемирное. Для получения местного времени необходимо прибавить поправку, которая равна 8 ч.
Смотрите также архив погоды в соседних городах и на ближайших метеорологических станциях:
Партнеры нашего сайта:      
Пояснения к столбцам:
  • Ветер - указаны скорость ветра в м/с - средняя за 10 мин, порывы в срок и между сроками (в фигурных скобках) и направление, откуда дует ветер: С - северный,
  • СВ - северо-восточный, В - восточный, ЮВ - юго-восточный, Ю - южный, ЮЗ - юго-западный, З - западный, СЗ - северо-западный.
  • Видимость - горизонтальная дальность видимости в метрах или километрах. При видимости от 1 до 10 км при отсутствии осадков обычно наблюдается дымка, при ухудшении видимости до 1 км и менее - туман. В сухую погоду видимость может ухудшаться дымом, пылью или мглою.
  • Явления - указаны атмосферные явления, наблюдавшиеся в срок или в последний час перед сроком; фигурными скобками обозначены явления, наблюдавшиеся между сроками (за 1-3 часа до срока); квадратными скобками обозначены град или гололедные отложения с указанием их диаметра в мм.
  • Облачность - указаны через наклонную черту общая и нижняя облачность в баллах и высота нижней границы облаков в метрах; квадратными скобками обозначены формы облаков: Ci - перистые, Cs - перисто-слоистые, Cc - перисто-кучевые, Ac - высококучевые, As - высокослоистые, Sc - слоисто-кучевые, Ns - слоисто-дождевые, Cu - кучевые, Cb - кучево-дождевые. Подробнее классификацию облаков см. в Атласе облаков (PDF).
  • T - Температура воздуха - температура, измеренная на высоте 2 м над землей.
  • Td - Температура точки росы - температура, при понижении до которой содержащийся в воздухе водяной пар достигнет насыщения.
  • f - Относительная влажность воздуха - влажноcть воздуха, измеренная на высоте 2 м над землей.
  • Te - Эффективная температура - температура, которую ощущает одетый по сезону человек в тени. Характеристика душности погоды. При расчете учитывается влияние влажности воздуха и скорости ветра на теплоощущения человека.
  • Tes - Эффективная температура на солнце - температура, которую ощущает человек, с поправкой на солнечный нагрев. Характеристика знойности погоды. Зависит от высоты солнца над горизонтом, облачности и скорости ветра. Ночью, в пасмурную погоду, а также при ветре 12 м/с и более поправка равна нулю.
  • P - Атмосферное давление - приведенное к уровню моря атмосферное давление.
  • Po - Атмосферное давление - измеренное на уровне метеостанции атмосферное давление.
  • Tmin - Минимальная температура - минимум температуры воздуха на высоте 2 м над землей.
  • Tmax - Максимальная температура - максимум температуры воздуха на высоте 2 м над землей.
  • R - Количество осадков - Количество выпавших осадков за период времени, мм. При наведении курсора мыши на число - период времени, за который выпало указанное количество осадков.
  • R24 - Количество осадков - Количество выпавших осадков за 24 часа, мм.
  • S - Снежный покров - Высота снежного покрова, см. При наведении курсора мыши на число - состояние снежного покрова и степень покрытия местности в баллах.